{"data":{"norad_id":65840,"intl_designator":"2025-221T","name":"STARLINK-35364","alt_names":[],"object_type":"PAYLOAD","status":"ACTIVE","operator":null,"country":"US","launch_date":"2025-09-29","launch_site_code":"AFWTR","launch_vehicle":null,"mission":null,"orbit_class":"UNKNOWN","rcs_meters":null,"size_class":null,"mass_kg":null,"dimensions":null,"purposes":["comms"],"wikipedia_slug":null,"has_3d_model":false,"image_url":null,"decayed_at":null,"tle_current":{"epoch":"2026-05-25T02:56:46.452768Z","epoch_age_seconds":67605,"freshness":"FRESH","line1":"1 65840U 25221T   26145.12275987  .00026305  00000+0  78701-3 0  9995","line2":"2 65840  53.1603  92.7550 0001164  64.0686 296.0436 15.34396805 36444","mean_motion":15.34396805,"eccentricity":0.0001164,"inclination_deg":53.1603,"raan_deg":92.755,"arg_perigee_deg":64.0686,"mean_anomaly_deg":296.0436,"bstar":0.00078701,"rev_number":3644,"period_min":93.847953495967,"perigee_km":461.91646152758,"apogee_km":463.50901134622,"semimajor_km":6840.8497364369,"source":"CELESTRAK","updated_at":"2026-05-25T13:38:20.945753Z"}}}